Tracking 33850 objects as of 19-Apr-2026
HD Live streaming from Space Station
objects crossing your sky now

STARLINK-1446

Track STARLINK-1446 now!
10-day predictions
STARLINK-1446 is classified as:


NORAD ID: 45663
Int'l Code: 2020-035G
Perigee: 437.0 km
Apogee: 442.1 km
Inclination: 53.0 °
Period: 93.2 minutes
Semi major axis: 6810 km
RCS: Unknown
Launch date: June 4, 2020
Source: United States (US)
Launch site: AIR FORCE EASTERN TEST RANGE (AFETR)
Your satellite tracking list
Your tracking list is empty




NASA's NSSDC Master Catalog

Two Line Element Set (TLE):
1 45663U 20035G   26108.43176022  .00024552  00000-0  52574-3 0  9990
2 45663  53.0238 170.3436 0003768  37.0712 323.0553 15.44658091325818
Source of the keplerian elements: AFSPC